User: anonymous   Login
Location: Unspecified
(0.0000°N, 0.0000°E)
Time: 07:56:23
(UTC+02:00)
Language:

CZ-2C R/B - Orbit

View from above orbital plane
View from above orbital plane
View from above satellite
View from above satellite

Ground track
Ground track

The orbit data is extracted from the following two-line orbital elements,

1 28480U 04046B   16150.96935112 +.00000058 +00000-0 +38066-4 0  9995
2 28480 098.1801 266.0785 0140825 275.6003 193.8627 14.25592403599619
Epoch (UTC): 29 May 2016 23:15:51
Eccentricity: 0.0140825
inclination: 98.1801°
perigee height: 705 km
apogee height: 907 km
right ascension of ascending node: 266.0785°
argument of perigee: 275.6003°
revolutions per day: 14.25592403
mean anomaly at epoch: 193.8627°
orbit number at epoch: 59961

The dashed part of the orbit path shows where the satellite is in the earth's shadow,  

DLR